TimeCDT,TemperatureF,Dew PointF,Humidity,Sea Level PressureIn,VisibilityMPH,Wind Direction,Wind SpeedMPH,Gust SpeedMPH,PrecipitationIn,Events,Conditions,WindDirDegrees,DateUTC
12:55 AM,44.6,30.2,57,29.81,10.0,West,13.8,23.0,N/A,,Clear,270,2011-10-17 05:55:00
1:55 AM,44.6,30.2,57,29.80,10.0,West,15.0,25.3,N/A,,Clear,270,2011-10-17 06:55:00
2:55 AM,44.6,30.2,57,29.80,10.0,West,12.7,-,N/A,,Clear,270,2011-10-17 07:55:00
3:55 AM,42.8,30.2,61,29.79,10.0,West,11.5,-,N/A,,Clear,280,2011-10-17 08:55:00
4:55 AM,42.8,30.2,61,29.79,10.0,West,10.4,-,N/A,,Clear,270,2011-10-17 09:55:00
5:55 AM,41.0,30.2,65,29.80,10.0,West,10.4,-,N/A,,Clear,270,2011-10-17 10:55:00
6:55 AM,41.0,30.2,65,29.81,10.0,West,13.8,-,N/A,,Partly Cloudy,260,2011-10-17 11:55:00
7:55 AM,41.0,32.0,70,29.81,10.0,West,11.5,-,N/A,,Clear,270,2011-10-17 12:55:00
8:55 AM,44.6,32.0,61,29.81,10.0,West,15.0,-,N/A,,Clear,270,2011-10-17 13:55:00
9:55 AM,48.2,30.2,50,29.81,10.0,West,15.0,23.0,N/A,,Clear,280,2011-10-17 14:55:00
10:55 AM,51.8,30.2,44,29.79,10.0,WNW,23.0,28.8,N/A,,Partly Cloudy,290,2011-10-17 15:55:00
11:55 AM,55.4,28.4,36,29.79,10.0,WNW,17.3,26.5,N/A,,Partly Cloudy,300,2011-10-17 16:55:00
12:55 PM,57.2,26.6,31,29.78,10.0,WNW,19.6,26.5,N/A,,Partly Cloudy,290,2011-10-17 17:55:00
1:55 PM,57.2,28.4,33,29.77,10.0,West,18.4,25.3,N/A,,Partly Cloudy,260,2011-10-17 18:55:00
2:55 PM,57.2,28.4,33,29.77,10.0,West,16.1,27.6,N/A,,Partly Cloudy,270,2011-10-17 19:55:00
3:55 PM,57.2,28.4,33,29.76,10.0,West,18.4,27.6,N/A,,Partly Cloudy,260,2011-10-17 20:55:00
4:55 PM,55.4,26.6,33,29.76,10.0,West,19.6,24.2,N/A,,Partly Cloudy,260,2011-10-17 21:55:00
5:55 PM,51.8,28.4,41,29.77,10.0,West,9.2,-,N/A,,Partly Cloudy,280,2011-10-17 22:55:00
6:55 PM,44.6,28.4,53,29.78,10.0,West,9.2,-,N/A,,Partly Cloudy,260,2011-10-17 23:55:00
7:55 PM,41.0,28.4,61,29.81,10.0,West,9.2,-,N/A,,Partly Cloudy,270,2011-10-18 00:55:00
8:55 PM,41.0,28.4,61,29.81,10.0,West,8.1,-,N/A,,Partly Cloudy,270,2011-10-18 01:55:00
9:55 PM,39.2,28.4,65,29.83,10.0,West,5.8,-,N/A,,Partly Cloudy,280,2011-10-18 02:55:00
10:55 PM,41.0,28.4,61,29.82,10.0,West,9.2,-,N/A,,Partly Cloudy,280,2011-10-18 03:55:00
11:55 PM,39.2,28.4,65,29.82,10.0,West,8.1,-,N/A,,Partly Cloudy,280,2011-10-18 04:55:00